Location: Poughquag
(41.6090°N, 73.6820°W)
Time: 14:34:22
(UTC-04:00)

Vanguard 2 - Pass Details

Date: 07 June 2020
Orbit: 552 x 2938 km, 32.9° (Epoch: 05 July)

Event Time Altitude Azimuth Distance (km) Brightness Sun altitude
Rises 00:02:14 0° 271° (W) 4,812 11.8 -24.5°
Reaches altitude 10° 00:08:34 10° 243° (WSW) 3,165 10.5 -24.8°
Enters shadow 00:09:38 11° 235° (SW) 2,971 10.3 -24.8°
